Location: Santa Giusta
(39.8800°N, 8.6069°E)
Time: 18:17:12
(UTC+00:00)

Cosmos 1386 Rocket - Pass Details

Date: 02 February 2023
Orbit: 930 x 1004 km, 83.0° (Epoch: 01 April)

Event Time Altitude Azimuth Distance (km) Brightness Sun altitude
Rises 18:56:22 0° 351° (N) 3,591 7.6 -25.3°
Reaches altitude 10° 18:58:51 10° 350° (N) 2,644 6.9 -25.8°
Maximum altitude 19:04:51 77° 265° (W) 961 4.5 -26.9°
Drops below altitude 10° 19:10:52 10° 181° (S) 2,648 6.8 -28.1°
Sets 19:13:21 0° 180° (S) 3,598 7.5 -28.5°
